User: anonymous   Login
Location: Newark
(45.0500°N, 41.9667°E)
Time: 02:14:26
(UTC+00:00)
Language:

Starlink (trailer) - Orbit

View from above orbital plane
View from above orbital plane
View from above satellite
View from above satellite

Ground track
Ground track

The orbit data is extracted from the following two-line orbital elements,

1 44284U 19029BB  19235.94321419 +.00000830 +00000-0 +76329-4 0  9998
2 44284 053.0028 119.6608 0001225 090.4036 269.7092 15.05476118013204
Epoch (UTC): 23 August 2019 22:38:13
Eccentricity: 0.0001225
inclination: 53.0028°
perigee height: 549 km
apogee height: 551 km
right ascension of ascending node: 119.6608°
argument of perigee: 90.4036°
revolutions per day: 15.05476118
mean anomaly at epoch: 269.7092°
orbit number at epoch: 1320

The dashed part of the orbit path shows where the satellite is in the earth's shadow,  

DLR